#timestamp,LO_Frequency,Hit,StdDev 
1607364015.8,286046997.0,N
1607364035.7,286046997.9,N
1607364055.5,286046999.6,N
1607364075.3,286046997.0,N
1607364095.2,286046998.7,N
1607364115.0,286046996.5,N
1607364115.9,286046996.5,N
1607364135.8,286046998.3,N
1607364155.6,286047000.7,N
1607364175.4,286046998.1,N
1607364195.3,286047000.4,N
1607364215.1,286047001.0,N
1607364235.8,286047000.7,N
1607364255.7,286047000.6,N
1607364275.5,286046999.2,N
1607364295.4,286046998.7,N
1607364315.2,286047000.5,N
1607364335.0,286047000.7,N
1607364335.9,286047000.7,N
1607364355.8,286047000.5,N
1607364375.6,286046996.9,N
1607364395.4,286046998.8,N
1607364415.3,286046996.9,N
1607364435.1,286046999.6,N
1607364455.9,286046996.9,N
1607364505.7,286047000.5,E
1607364515.6,286047000.3,N
1607364535.5,286047000.7,P
1607364555.3,286046998.8,P
1607364575.2,286046996.5,Y
1607364595.9,286047000.7,P
1607364615.7,286047001.2,P
1607364635.6,286046998.4,P
1607364655.4,286047002.1,N
1607364675.2,286047002.3,N
1607364695.1,286046999.6,N
1607364696.0,286046999.6,N
1607364715.8,286046998.8,N
1607364735.7,286047002.3,N
1607364755.5,286047000.3,N
1607364775.3,286047001.8,N
1607364795.2,286047003.4,N
1607364815.0,286047003.4,N
1607364815.9,286047003.4,N
1607364835.7,286047001.7,N
1607364855.6,286047000.4,N
1607364875.4,286047001.9,N
1607364895.3,286047001.6,N
1607364915.1,286047004.1,N
1607364916.0,286047004.1,N
1607364935.8,286047001.4,N
1607364955.7,286047005.7,Y
1607364975.5,286047003.9,P
1607364995.4,286047002.6,N
1607365015.2,286047000.5,N
1607365035.0,286047002.6,N
1607365035.9,286047002.6,N
1607365055.8,286046998.8,N
1607365075.6,286046999.1,N
1607365095.4,286046997.1,N
1607365115.3,286046996.6,N
1607365135.1,286046998.1,N
1607365155.8,286046998.9,N
1607365175.7,286047000.6,N
1607365195.5,286046999.1,N
1607365215.4,286046999.1,N
1607365235.2,286046996.5,N
1607365255.0,286046995.6,N
1607365255.9,286046995.6,N
1607365275.8,286046999.2,N
1607365295.6,286046999.2,N
1607365315.4,286046997.5,N
1607365335.3,286046995.9,N
1607365355.1,286046995.2,N
1607365375.9,286046995.3,N
1607365395.7,286046999.6,N
1607365415.5,286047000.9,N
1607365435.4,286046999.8,N
1607365455.2,286046999.7,N
1607365475.0,286046998.8,N
1607365475.9,286046998.8,N
1607365495.8,286047000.2,N
1607365515.6,286047000.7,N
1607365535.5,286047000.0,N
1607365555.3,286046999.7,N
1607365575.1,286046998.4,N
1607365595.9,286046997.1,N
1607365615.7,286046997.1,N
1607365635.5,286046998.2,N
1607365655.4,286046998.8,N
1607365675.2,286046998.2,N
1607365695.1,286047000.8,N
1607365696.0,286047000.8,N
1607365715.8,286046999.4,N
1607365735.6,286046997.6,N
1607365755.5,286046996.8,N
1607365775.3,286046996.5,N
1607365795.1,286046997.1,N
1607365815.9,286046997.9,N
1607365835.7,286046999.3,N
1607365855.6,286046999.5,N
1607365875.4,286046995.0,Y
1607365895.2,286047000.8,P
1607365915.1,286046999.2,N
1607365916.0,286046999.2,N
1607365935.8,286046998.5,N
1607365955.7,286046998.5,N
1607365975.5,286046999.3,N
1607365995.3,286046999.4,N
1607366015.2,286046999.6,N
1607366035.9,286046999.3,N
1607366055.7,286046997.4,Y
1607366075.6,286046998.6,P
1607366095.4,286047000.7,N
1607366115.3,286046998.7,N
1607366135.1,286046998.8,N
1607366136.0,286046998.8,N
1607366155.8,286046996.9,Y
1607366175.7,286046998.2,P
1607366195.5,286047002.8,P
1607366215.3,286047002.1,N
1607366235.2,286047004.4,N
1607366255.0,286047003.2,N
1607366255.9,286047003.2,N
1607366275.8,286047003.4,N
1607366295.6,286047002.9,N
1607366315.4,286047003.8,N
1607366335.3,286047001.8,N
1607366355.1,286047001.5,N
1607366375.8,286047003.4,N
1607366395.7,286047004.4,N
1607366415.5,286047005.6,Y
1607366435.4,286047005.7,P
1607366455.2,286047001.6,N
1607366475.0,286047000.9,N
1607366475.9,286047000.9,N
1607366495.8,286047002.2,N
1607366515.6,286047000.5,N
1607366535.4,286047000.5,N
1607366555.3,286046998.7,N
1607366575.1,286046998.1,N
1607366595.9,286046998.2,N
1607366615.7,286047000.7,N
1607366635.5,286047000.3,N
1607366655.4,286047000.6,N
1607366675.2,286046999.0,N
1607366695.0,286046998.0,N
1607366695.9,286046998.0,N
1607366715.8,286046996.9,N
1607366735.6,286046997.3,N
1607366755.5,286046997.6,N
1607366775.3,286046997.8,N
1607366795.1,286046997.1,N
1607366815.9,286046998.3,N
1607366835.7,286046999.4,N
1607366855.5,286046998.0,N
1607366875.4,286046998.0,N
1607366895.2,286046995.7,N
1607366915.1,286046999.0,N
1607366916.0,286046999.0,N
1607366935.8,286047002.4,N
1607366955.6,286047000.3,N
1607366975.5,286046998.2,N
1607366995.3,286046998.3,N
1607367015.1,286047000.8,N
1607367035.9,286047001.1,N
1607367055.7,286047000.7,N
1607367075.6,286046998.3,N
1607367095.4,286046998.2,N
1607367115.2,286046999.0,N
1607367135.1,286046998.3,N
1607367136.0,286046998.3,N
1607367155.8,286047001.2,N
1607367175.6,286046998.2,N
1607367195.5,286047000.9,N
1607367215.3,286047001.1,N
1607367235.2,286046996.6,N
1607367255.9,286046997.2,N
1607367275.7,286046999.4,N
1607367295.6,286046999.1,N
1607367315.4,286046998.8,N
1607367335.2,286046999.4,N
1607367355.1,286046997.1,N
1607367356.0,286046997.1,N
1607367375.8,286046997.2,N
1607367395.7,286046999.5,N
1607367415.5,286046998.6,N
1607367435.3,286046998.8,N
1607367455.2,286046997.2,N
1607367475.0,286046996.5,N
1607367475.9,286046996.5,N
1607367495.8,286046999.3,N
1607367515.6,286047001.1,N
1607367535.4,286046998.9,N
1607367555.3,286046997.0,N
1607367575.1,286046999.4,N
1607367595.8,286047002.6,N
